Flag for U.S.A. Weather past 2 weeks in Washington DC, District of Columbia, U.S.A.

Now
59 °F

Partly sunny.


Feels Like: 58 °F
Forecast: 40 / 58 °F
Wind: 7 mph from Northwest

Location: Reagan National Airport

Current Time: Apr 24, 2015 at 8:47:43 PM

Latest Report: Apr 24, 2015 at 7:52 PM


Visibility: 10 mi

Pressure: 29.93 "Hg

Humidity: 21%

Dew point: 19 °F

Location of Washington DCLocation

Historic Weather in Washington DC — Graph

°F

Washington DC temperature yesterday

Maximum temperature yesterday: 59 °F (at 4:52 PM)
Minimum temperature yesterday: 45 °F (at 6:52 AM)
Average temperature yesterday: 53 °F

Past Weeks' High & Low Weather Summary

 TemperatureHumidityPressure
High83 °F (Apr 18, 4:52 PM)90% (Apr 10, 1:52 AM)30.43 "Hg (Apr 10, 1:52 AM)
Low40 °F (Apr 24, 5:52 AM)19% (Apr 24, 5:52 PM)29.50 "Hg (Apr 20, 7:52 PM)
Average61 °F54%30.02 "Hg
* Reported Apr 9 6:52 PM — Apr 24 6:52 PM, Washington DC, Weather by CustomWeather, © 2015

Note: Actual official high and low records may vary slightly from our data, if they occured in-between our weather recording intervals... More about our weather records

Advertising

Washington DC weather history for previous 24 hours

 ConditionsComfort  
Time TempWeatherWind HumidityBarometerVisibility
6:52 PM
Fri, Apr 24
61 °FScattered clouds.15 mph20%29.92 "Hg10 mi
5:52 PM62 °FScattered clouds.15 mph19%29.92 "Hg10 mi
4:52 PM62 °FPassing clouds.13 mph20%29.92 "Hg10 mi
3:52 PM61 °FPassing clouds.18 mph20%29.93 "Hg10 mi
2:52 PM60 °FScattered clouds.16 mph23%29.95 "Hg10 mi
1:52 PM57 °FPassing clouds.12 mph25%29.97 "Hg10 mi
12:52 PM56 °FPassing clouds.16 mph27%29.99 "Hg10 mi
11:52 AM53 °FSunny.16 mph28%30.01 "Hg10 mi
10:52 AM50 °FPassing clouds.15 mph32%30.03 "Hg10 mi
9:52 AM47 °FPassing clouds.17 mph28%30.04 "Hg10 mi
8:52 AM44 °FPassing clouds.17 mph34%30.04 "Hg10 mi
7:52 AM44 °FPassing clouds.17 mph35%30.05 "Hg10 mi
6:52 AM40 °FPassing clouds.12 mph43%30.03 "Hg10 mi
5:52 AM40 °FPassing clouds.15 mph40%30.02 "Hg10 mi
4:52 AM41 °FPassing clouds.15 mph45%30.00 "Hg10 mi
3:52 AM42 °FPassing clouds.16 mph51%29.99 "Hg10 mi
2:52 AM44 °FPassing clouds.12 mph47%29.98 "Hg10 mi
1:52 AM46 °FPassing clouds.12 mph37%29.96 "Hg10 mi
12:52 AM47 °FPassing clouds.10 mph46%29.96 "Hg10 mi
11:52 PM
Thu, Apr 23
48 °FPassing clouds.9 mph46%29.95 "Hg10 mi
10:52 PM50 °FPassing clouds.16 mph44%29.94 "Hg10 mi
9:52 PM51 °FPassing clouds.13 mph42%29.93 "Hg10 mi
8:52 PM53 °FPassing clouds.13 mph38%29.90 "Hg10 mi
Weather by CustomWeather, © 2015

See weather overviewHow to use our weather pages